• En España
  • Lista de países
  • Para 7 días
  • Temperatura del agua
  • Mapa Satelital
  • El tiempo en el mapa
  • Informadores
  • user-avatar
    Iniciar sesión

    Tiempo cada hora Sucre

    Hoy, 25 Septiembre, Martes

    Tiempo Temperatura Precipitaciones Viento Presión Humedad
    00:00 +14°C° 0.4 mm 1 mps 540 mmHg 71%
    01:00 +14°C° 0.4 mm 1 mps 540 mmHg 73%
    02:00 +14°C° 0.4 mm 1 mps 539 mmHg 74%
    03:00 +14°C° 0.5 mm 2 mps 539 mmHg 74%
    04:00 +14°C° 0.5 mm 2 mps 539 mmHg 74%
    05:00 +14°C° 0.5 mm 2 mps 539 mmHg 74%
    06:00 +14°C° 0.1 mm 2 mps 540 mmHg 71%
    07:00 +15°C° 0.1 mm 2 mps 540 mmHg 68%
    08:00 +15°C° 0.1 mm 2 mps 541 mmHg 65%
    09:00 +17°C° 0 mm 2 mps 542 mmHg 56%
    10:00 +18°C° 0 mm 3 mps 542 mmHg 48%
    11:00 +20°C° 0 mm 3 mps 543 mmHg 40%
    12:00 +21°C° 0 mm 4 mps 543 mmHg 38%
    13:00 +22°C° 0 mm 4 mps 542 mmHg 36%
    14:00 +22°C° 0 mm 5 mps 542 mmHg 34%
    15:00 +21°C° 0.9 mm 5 mps 541 mmHg 38%
    16:00 +20°C° 0.9 mm 5 mps 540 mmHg 42%
    17:00 +19°C° 0.9 mm 5 mps 540 mmHg 46%
    18:00 +18°C° 0.9 mm 4 mps 540 mmHg 50%
    19:00 +18°C° 0.9 mm 3 mps 540 mmHg 54%
    20:00 +17°C° 0.9 mm 2 mps 540 mmHg 58%
    21:00 +16°C° 0.4 mm 2 mps 540 mmHg 61%
    22:00 +16°C° 0.4 mm 2 mps 540 mmHg 64%
    23:00 +15°C° 0.4 mm 2 mps 540 mmHg 67%

    Mañana, 26 Septiembre, Miércoles

    Tiempo Temperatura Precipitaciones Viento Presión Humedad
    00:00 +15°C° 0.1 mm 1 mps 540 mmHg 69%
    01:00 +14°C° 0.1 mm 1 mps 539 mmHg 71%
    02:00 +14°C° 0.1 mm 1 mps 539 mmHg 73%
    03:00 +14°C° 0 mm 1 mps 539 mmHg 74%
    04:00 +13°C° 0 mm 1 mps 538 mmHg 75%
    05:00 +13°C° 0 mm 1 mps 538 mmHg 76%
    06:00 +14°C° 0 mm 1 mps 539 mmHg 70%
    07:00 +15°C° 0 mm 2 mps 540 mmHg 64%
    08:00 +16°C° 0 mm 2 mps 541 mmHg 58%
    09:00 +17°C° 0 mm 2 mps 541 mmHg 49%
    10:00 +19°C° 0 mm 2 mps 542 mmHg 39%
    11:00 +21°C° 0 mm 3 mps 543 mmHg 30%
    12:00 +22°C° 0 mm 3 mps 543 mmHg 27%
    13:00 +24°C° 0 mm 3 mps 543 mmHg 24%
    14:00 +23°C° 0 mm 4 mps 542 mmHg 21%
    15:00 +23°C° 0.1 mm 5 mps 542 mmHg 26%
    16:00 +22°C° 0.1 mm 6 mps 541 mmHg 30%
    17:00 +21°C° 0.1 mm 7 mps 541 mmHg 35%
    18:00 +20°C° 1.1 mm 5 mps 540 mmHg 44%
    19:00 +18°C° 1.1 mm 4 mps 540 mmHg 52%
    20:00 +16°C° 1.1 mm 2 mps 540 mmHg 61%
    21:00 +16°C° 0.8 mm 2 mps 540 mmHg 62%
    22:00 +16°C° 0.8 mm 2 mps 541 mmHg 63%
    23:00 +16°C° 0.8 mm 1 mps 541 mmHg 64%

    Pasado mañana, 27 Septiembre, Jueves

    Tiempo Temperatura Precipitaciones Viento Presión Humedad
    00:00 +15°C° 0.1 mm 1 mps 540 mmHg 65%
    01:00 +15°C° 0.1 mm 1 mps 540 mmHg 66%
    02:00 +15°C° 0.1 mm 1 mps 540 mmHg 67%
    03:00 +14°C° 0 mm 1 mps 539 mmHg 69%
    04:00 +14°C° 0 mm 1 mps 539 mmHg 70%
    05:00 +14°C° 0 mm 1 mps 539 mmHg 72%
    06:00 +14°C° 0 mm 1 mps 540 mmHg 67%
    07:00 +15°C° 0 mm 1 mps 540 mmHg 63%
    08:00 +16°C° 0 mm 2 mps 541 mmHg 58%
    09:00 +17°C° 0 mm 2 mps 542 mmHg 52%
    10:00 +18°C° 0 mm 3 mps 542 mmHg 47%
    11:00 +19°C° 0 mm 3 mps 543 mmHg 41%
    12:00 +20°C° 0 mm 4 mps 542 mmHg 40%
    13:00 +21°C° 0 mm 4 mps 542 mmHg 38%
    14:00 +21°C° 0 mm 5 mps 542 mmHg 36%
    15:00 +20°C° 0.5 mm 5 mps 541 mmHg 40%
    16:00 +20°C° 0.5 mm 5 mps 541 mmHg 43%
    17:00 +19°C° 0.5 mm 6 mps 540 mmHg 47%
    18:00 +17°C° 1.4 mm 5 mps 541 mmHg 51%
    19:00 +17°C° 1.4 mm 4 mps 541 mmHg 54%
    20:00 +16°C° 1.4 mm 2 mps 541 mmHg 58%
    21:00 +16°C° 0.1 mm 2 mps 541 mmHg 59%
    22:00 +15°C° 0.1 mm 2 mps 541 mmHg 60%
    23:00 +15°C° 0.1 mm 2 mps 541 mmHg 62%

    28 Septiembre, Viernes

    Tiempo Temperatura Precipitaciones Viento Presión Humedad
    00:00 +15°C° 0 mm 2 mps 541 mmHg 63%
    01:00 +14°C° 0 mm 2 mps 540 mmHg 65%
    02:00 +14°C° 0 mm 2 mps 540 mmHg 67%
    03:00 +14°C° 0 mm 1 mps 540 mmHg 68%
    04:00 +13°C° 0 mm 1 mps 539 mmHg 70%
    05:00 +13°C° 0 mm 1 mps 539 mmHg 71%
    06:00 +13°C° 0 mm 1 mps 540 mmHg 68%
    07:00 +14°C° 0 mm 1 mps 541 mmHg 64%
    08:00 +15°C° 0 mm 1 mps 541 mmHg 60%
    09:00 +16°C° 0 mm 2 mps 542 mmHg 54%
    10:00 +18°C° 0 mm 3 mps 543 mmHg 48%
    11:00 +19°C° 0 mm 3 mps 543 mmHg 42%
    12:00 +20°C° 0.1 mm 4 mps 543 mmHg 41%
    13:00 +21°C° 0.1 mm 4 mps 542 mmHg 40%
    14:00 +21°C° 0.1 mm 5 mps 542 mmHg 39%
    15:00 +20°C° 2.1 mm 5 mps 541 mmHg 44%
    16:00 +19°C° 2.1 mm 4 mps 541 mmHg 50%
    17:00 +18°C° 2.1 mm 4 mps 540 mmHg 55%
    18:00 +17°C° 1.4 mm 3 mps 540 mmHg 58%
    19:00 +17°C° 1.4 mm 2 mps 540 mmHg 60%
    20:00 +16°C° 1.4 mm 1 mps 540 mmHg 63%
    21:00 +16°C° 0.2 mm 1 mps 541 mmHg 63%
    22:00 +16°C° 0.2 mm 1 mps 541 mmHg 64%
    23:00 +15°C° 0.2 mm 1 mps 541 mmHg 65%

    29 Septiembre, Sábado

    Tiempo Temperatura Precipitaciones Viento Presión Humedad
    00:00 +15°C° 0 mm 1 mps 540 mmHg 66%
    01:00 +15°C° 0 mm 1 mps 540 mmHg 67%
    02:00 +14°C° 0 mm 1 mps 539 mmHg 69%
    03:00 +14°C° 0 mm 1 mps 539 mmHg 69%
    04:00 +14°C° 0 mm 1 mps 539 mmHg 70%
    05:00 +13°C° 0 mm 1 mps 539 mmHg 70%
    06:00 +14°C° 0 mm 1 mps 540 mmHg 62%
    07:00 +15°C° 0 mm 1 mps 541 mmHg 55%
    08:00 +18°C° 0 mm 1 mps 542 mmHg 47%
    09:00 +20°C° 0 mm 1 mps 542 mmHg 38%
    10:00 +21°C° 0 mm 1 mps 543 mmHg 28%
    11:00 +23°C° 0 mm 1 mps 544 mmHg 19%
    12:00 +24°C° 0 mm 2 mps 543 mmHg 17%
    13:00 +25°C° 0 mm 2 mps 543 mmHg 15%
    14:00 +26°C° 0 mm 2 mps 543 mmHg 13%
    15:00 +26°C° 0 mm 3 mps 542 mmHg 15%
    16:00 +26°C° 0 mm 5 mps 542 mmHg 16%
    17:00 +24°C° 0 mm 6 mps 542 mmHg 18%
    18:00 +23°C° 0.1 mm 5 mps 541 mmHg 27%
    19:00 +21°C° 0.1 mm 4 mps 541 mmHg 37%
    20:00 +19°C° 0.1 mm 3 mps 541 mmHg 46%
    21:00 +19°C° 0.2 mm 2 mps 541 mmHg 51%
    22:00 +18°C° 0.2 mm 2 mps 541 mmHg 56%
    23:00 +17°C° 0.2 mm 2 mps 541 mmHg 61%

    30 Septiembre, Domingo

    Tiempo Temperatura Precipitaciones Viento Presión Humedad
    00:00 +17°C° 0 mm 2 mps 540 mmHg 63%
    01:00 +16°C° 0 mm 1 mps 540 mmHg 65%
    02:00 +16°C° 0 mm 1 mps 539 mmHg 67%
    03:00 +15°C° 0 mm 1 mps 539 mmHg 67%
    04:00 +15°C° 0 mm 1 mps 539 mmHg 66%
    05:00 +14°C° 0 mm 1 mps 539 mmHg 66%
    06:00 +16°C° 0 mm 1 mps 539 mmHg 58%
    07:00 +17°C° 0 mm 2 mps 540 mmHg 51%
    08:00 +18°C° 0 mm 2 mps 541 mmHg 43%
    09:00 +20°C° 0 mm 2 mps 542 mmHg 34%
    10:00 +23°C° 0 mm 2 mps 542 mmHg 25%
    11:00 +25°C° 0 mm 2 mps 543 mmHg 17%
    12:00 +26°C° 0 mm 2 mps 543 mmHg 15%
    13:00 +27°C° 0 mm 2 mps 543 mmHg 13%
    14:00 +28°C° 0 mm 2 mps 543 mmHg 10%
    15:00 +27°C° 0 mm 3 mps 542 mmHg 11%
    16:00 +27°C° 0 mm 4 mps 542 mmHg 12%
    17:00 +27°C° 0 mm 5 mps 542 mmHg 12%
    18:00 +25°C° 0.1 mm 5 mps 542 mmHg 21%
    19:00 +22°C° 0.1 mm 4 mps 541 mmHg 30%
    20:00 +20°C° 0.1 mm 3 mps 541 mmHg 39%
    21:00 +20°C° 0.1 mm 3 mps 541 mmHg 44%
    22:00 +19°C° 0.1 mm 2 mps 541 mmHg 50%
    23:00 +19°C° 0.1 mm 1 mps 541 mmHg 55%
    Mostrar más